Waarnemingen

Advertentie
Mijn weer
Manresa, Spanje (8174): temperatuur & dauwpunt: 19.02.2018 06:00:00 - 25.02.2018 06:00:00 (CET)Manresa, Spanje (8174): windsnelheid & windstoten: 19.02.2018 06:00:00 - 25.02.2018 06:00:00 (CET)Manresa, Spanje (8174): windrichting: 19.02.2018 06:00:00 - 25.02.2018 06:00:00 (CET)Manresa, Spanje (8174): luchtdruk: 19.02.2018 06:00:00 - 25.02.2018 06:00:00 (CET)Manresa, Spanje (8174): zicht: 19.02.2018 06:00:00 - 25.02.2018 06:00:00 (CET)Manresa, Spanje (8174): Zonneschijnduur: 19.02.2018 06:00:00 - 25.02.2018 06:00:00 (CET)Manresa, Spanje (8174): neerslag: 19.02.2018 06:00:00 - 25.02.2018 06:00:00 (CET)
Datum & Tijd tt [°C] td [°C] ff [km/u] ff [kn] fx [km/u] fx [kn] dd ppp [hPa] vv [km] sd [min] rr [mm]
25.02.2018 06:00:00 - - - - - - - - - - -
25.02.2018 05:00:00 1,7 -1,7 1 1 5 3 N 1011,1 8 0 0,0
25.02.2018 04:00:00 1,8 -2,0 3 2 7 4 W 1011,2 8 0 0,0
25.02.2018 03:00:00 2,0 -1,7 1 1 8 5 N 1011,6 9 0 0,0
25.02.2018 02:00:00 1,4 -2,0 4 2 6 3 W 1011,6 8 0 0,0
25.02.2018 01:00:00 1,9 -2,0 4 2 8 5 NNO 1011,4 8 0 -
25.02.2018 00:00:00 3,1 -1,2 4 2 7 4 N 1010,7 8 0 0,0
24.02.2018 23:00:00 4,0 -0,5 4 2 6 4 W 1010,5 9 0 0,0
24.02.2018 22:00:00 5,5 0,9 2 1 8 4 W 1010,1 13 0 0,0
24.02.2018 21:00:00 7,0 0,6 2 1 5 3 ZZO 1009,4 13 0 0,0
24.02.2018 20:00:00 8,0 0,4 4 2 11 6 ZZW 1009,1 20 0 0,0
24.02.2018 19:00:00 9,0 0,4 5 3 13 7 ZW 1008,1 20 12 -
24.02.2018 18:00:00 10,9 -0,3 8 4 19 11 Z 1007,0 20 60 0,0
24.02.2018 17:00:00 11,7 -2,5 13 7 22 12 Z 1006,5 19 60 0,0
24.02.2018 16:00:00 12,9 -3,3 7 4 17 9 Z 1006,2 20 60 0,0
24.02.2018 15:00:00 12,7 -4,5 5 3 14 8 ZZW 1006,3 13 60 0,0
24.02.2018 14:00:00 11,4 -4,5 8 4 - - Z 1007,0 20 60 0,0
24.02.2018 13:00:00 8,8 -3,0 8 4 14 7 NNO 1007,9 15 60 -
24.02.2018 12:00:00 6,2 -2,2 6 3 10 5 NNO 1008,7 10 60 0,0
24.02.2018 11:00:00 4,3 -1,4 3 2 9 5 ZW 1009,3 8 60 0,0
24.02.2018 10:00:00 0,7 -3,9 6 3 10 5 NO 1010,1 10 60 0,0
24.02.2018 09:00:00 -1,9 -4,5 4 2 8 4 W 1010,6 7 15 0,0
24.02.2018 08:00:00 -2,8 -4,5 4 2 8 5 N 1010,3 4,0 0 0,0
24.02.2018 07:00:00 -2,8 -4,5 2 1 6 3 N 1009,8 5 0 -
24.02.2018 06:00:00 -2,2 -4,2 4 2 7 4 N 1009,6 7 0 0,0
24.02.2018 05:00:00 -2,0 -5,1 2 1 5 3 NNO 1009,5 9 0 0,0
24.02.2018 04:00:00 -1,6 -3,9 4 2 7 4 NNO 1009,5 6 0 0,0
24.02.2018 03:00:00 -1,2 -4,5 2 1 9 5 WNW 1009,6 11 0 0,0
24.02.2018 02:00:00 -0,2 -3,3 4 2 7 4 N 1009,2 8 0 0,0
24.02.2018 01:00:00 0,3 -4,5 3 2 6 4 NW 1009,0 11 0 -
24.02.2018 00:00:00 0,9 -4,5 2 1 9 5 NNO 1008,9 12 0 0,0
23.02.2018 23:00:00 2,0 -4,5 4 2 10 5 NNW 1008,7 14 0 0,0
23.02.2018 22:00:00 2,6 -2,7 1 1 9 5 NW 1008,6 13 0 0,0
23.02.2018 21:00:00 4,5 -0,7 4 2 11 6 W 1008,1 12 0 0,0
23.02.2018 20:00:00 5,8 -0,3 7 4 16 9 Z 1007,6 13 0 0,0
23.02.2018 19:00:00 7,0 -1,4 8 5 19 10 Z 1006,8 15 19 -
23.02.2018 18:00:00 9,6 -7,5 10 5 16 9 W 1005,6 20 60 0,0
23.02.2018 17:00:00 11,1 -7,8 5 3 13 7 W 1005,0 18 60 0,0
23.02.2018 16:00:00 11,4 -7,1 6 4 - - W 1004,9 20 60 0,0
23.02.2018 15:00:00 9,4 -5,7 5 3 - - NNO 1005,5 20 60 0,0
23.02.2018 14:00:00 8,4 -2,5 7 4 16 9 NO 1006,0 13 60 0,0
23.02.2018 13:00:00 7,1 -3,3 4 2 15 8 N 1007,0 13 60 -
23.02.2018 12:00:00 5,1 -4,5 8 4 14 8 ONO 1007,9 16 60 0,0
23.02.2018 11:00:00 3,8 -4,2 6 3 11 6 NNO 1008,2 12 60 0,0
23.02.2018 10:00:00 1,5 -3,9 3 2 9 5 NW 1008,6 13 25 0,0
23.02.2018 09:00:00 0,2 -3,3 4 2 7 4 NO 1008,6 10 0 0,0
23.02.2018 08:00:00 -0,3 -4,2 3 2 11 6 OZO 1008,1 13 0 0,0
23.02.2018 07:00:00 -0,1 -4,5 4 2 13 7 N 1007,7 15 0 -
23.02.2018 06:00:00 1,6 -5,4 11 6 22 12 WNW 1007,3 19 0 0,0
23.02.2018 05:00:00 1,6 -3,3 10 5 19 10 WNW 1007,0 17 0 0,0
23.02.2018 04:00:00 1,5 -1,0 3 1 9 5 NNW 1006,9 8 0 0,0
23.02.2018 03:00:00 2,6 -0,3 2 1 7 4 ZZW 1007,2 8 0 0,0
23.02.2018 02:00:00 3,0 0,6 2 1 5 3 WZW 1007,3 9 0 0,0
23.02.2018 01:00:00 3,3 0,4 1 1 5 3 ZZO 1007,6 8 0 -
23.02.2018 00:00:00 3,6 1,1 0 0 10 6 N 1007,8 12 0 0,0
22.02.2018 23:00:00 4,0 1,3 5 3 10 5 W 1007,5 13 0 0,0
22.02.2018 22:00:00 4,6 1,3 3 1 12 7 ZZW 1007,3 14 0 0,0
22.02.2018 21:00:00 5,3 0,6 5 3 17 9 W 1006,8 17 0 0,0
22.02.2018 20:00:00 6,2 0,4 9 5 24 13 Z 1006,2 17 0 0,0
22.02.2018 19:00:00 6,7 0,6 9 5 27 15 Z 1005,8 17 1 -
22.02.2018 18:00:00 7,3 0,2 14 7 28 15 Z 1005,0 17 18 0,0
22.02.2018 17:00:00 8,6 0,2 14 8 28 15 Z 1004,4 17 60 0,0
22.02.2018 16:00:00 10,6 -2,5 7 4 - - ZZW 1003,9 20 60 0,0
22.02.2018 15:00:00 10,0 -3,6 5 3 11 6 Z 1004,6 18 60 0,0
22.02.2018 14:00:00 8,7 -3,3 5 3 14 7 WNW 1005,2 16 60 0,0
22.02.2018 13:00:00 7,2 -3,6 4 2 12 6 OZO 1006,1 19 60 -
22.02.2018 12:00:00 5,8 -3,0 4 2 12 7 O 1007,0 20 60 0,0
22.02.2018 11:00:00 4,6 -3,0 6 4 - - NO 1007,1 20 60 0,0
22.02.2018 10:00:00 0,9 -3,3 8 4 13 7 NO 1007,7 20 60 0,0
22.02.2018 09:00:00 -1,3 -3,9 5 3 9 5 NO 1008,1 12 15 0,0
22.02.2018 08:00:00 -2,9 -4,5 3 2 10 6 N 1008,1 16 0 0,0
22.02.2018 07:00:00 -2,8 -4,2 4 2 11 6 NNO 1008,1 17 0 -
22.02.2018 06:00:00 -2,4 -3,9 4 2 8 5 NNO 1007,8 15 0 0,0
22.02.2018 05:00:00 -2,4 -4,5 3 2 5 3 W 1008,0 20 0 0,0
22.02.2018 04:00:00 -1,5 -3,6 4 2 8 4 NO 1008,2 20 0 0,0
22.02.2018 03:00:00 -0,8 -3,6 3 2 7 4 NO 1008,4 20 0 0,0
22.02.2018 02:00:00 -0,2 -4,5 2 1 5 3 NNW 1008,7 20 0 0,0
22.02.2018 01:00:00 0,6 -4,2 4 2 9 5 NNO 1008,7 20 0 -
22.02.2018 00:00:00 1,5 -3,6 2 1 8 5 NW 1008,6 20 0 0,0
21.02.2018 23:00:00 3,0 -2,2 5 3 10 5 NO 1008,3 20 0 0,0
21.02.2018 22:00:00 5,2 1,1 2 1 7 4 NW 1008,0 20 0 0,0
21.02.2018 21:00:00 5,7 0,2 1 1 6 3 W 1007,9 20 0 0,0
21.02.2018 20:00:00 7,1 -1,4 6 4 22 12 WZW 1007,7 20 0 0,0
21.02.2018 19:00:00 8,8 -9,0 2 1 14 7 ZO 1006,7 20 14 -
21.02.2018 18:00:00 11,5 -9,4 6 4 21 12 ONO 1006,3 20 60 0,0
21.02.2018 17:00:00 12,1 -11,7 13 7 34 19 NO 1006,0 20 60 0,0
21.02.2018 16:00:00 12,4 -11,2 18 10 38 21 NNO 1006,1 20 60 0,0
21.02.2018 15:00:00 12,6 -13,3 21 12 41 22 NO 1006,5 20 60 0,0
21.02.2018 14:00:00 12,6 -9,9 19 10 44 24 NO 1007,0 20 60 0,0
21.02.2018 13:00:00 12,2 -4,8 16 9 32 17 NNO 1006,8 20 31 -
21.02.2018 12:00:00 9,9 0,2 11 6 22 12 NNO 1007,9 20 26 0,0
21.02.2018 11:00:00 8,4 2,9 5 3 11 6 N 1008,0 20 50 0,0
21.02.2018 10:00:00 6,4 2,7 5 3 10 5 NNO 1007,4 19 46 0,0
21.02.2018 09:00:00 3,1 1,5 8 4 16 9 ONO 1008,0 18 7 0,0
21.02.2018 08:00:00 2,6 1,3 5 3 16 9 ONO 1008,0 7 0 0,0
21.02.2018 07:00:00 3,7 1,5 5 3 10 6 NNO 1007,7 14 0 -
21.02.2018 06:00:00 4,5 1,9 4 2 8 4 NO 1008,1 20 0 0,0
21.02.2018 05:00:00 4,9 1,9 2 1 7 4 NNW 1008,7 20 0 0,0
21.02.2018 04:00:00 6,0 2,1 2 1 11 6 Z 1008,7 20 0 0,0
21.02.2018 03:00:00 6,5 1,9 3 1 12 7 W 1009,0 20 0 0,0
21.02.2018 02:00:00 7,3 2,5 2 1 10 5 N 1009,7 20 0 0,0
21.02.2018 01:00:00 7,9 2,7 5 3 19 10 WZW 1009,9 20 0 -
21.02.2018 00:00:00 9,3 4,5 6 3 16 9 Z 1009,7 19 0 0,0
20.02.2018 23:00:00 9,4 5,9 14 8 24 13 ZZW 1009,6 12 0 0,0
20.02.2018 22:00:00 10,2 5,8 11 6 23 13 Z 1009,2 14 0 0,0
20.02.2018 21:00:00 12,1 -0,5 3 2 11 6 NNO 1008,8 20 0 0,0
20.02.2018 20:00:00 13,5 -1,7 3 2 26 14 NNW 1008,5 20 0 0,0
20.02.2018 19:00:00 15,2 -1,4 13 7 33 18 W 1008,0 20 16 -
20.02.2018 18:00:00 16,2 2,9 18 10 36 20 W 1007,2 20 60 0,0
20.02.2018 17:00:00 17,4 3,6 14 7 29 16 W 1007,1 20 60 0,0
20.02.2018 16:00:00 17,3 4,3 10 5 24 13 W 1007,4 20 48 0,0
20.02.2018 15:00:00 15,4 4,8 13 7 - - W 1008,3 20 58 0,0
20.02.2018 14:00:00 13,3 5,6 9 5 - - W 1009,6 20 0 0,0
20.02.2018 13:00:00 12,3 6,4 - - - - - 1010,2 19 14 -
20.02.2018 12:00:00 13,0 6,5 - - - - - 1011,0 19 58 0,0
20.02.2018 11:00:00 11,7 5,9 7 4 16 9 W 1011,7 20 43 0,0
20.02.2018 10:00:00 9,4 5,9 3 2 8 4 NNW 1012,4 14 10 0,0
20.02.2018 09:00:00 8,2 6,4 4 2 6 3 NNO 1012,6 6 1 0,0
20.02.2018 08:00:00 8,0 6,1 4 2 8 4 NO 1012,4 4,7 0 0,0
20.02.2018 07:00:00 8,2 6,4 3 2 6 3 NNO 1012,7 4,9 0 -
20.02.2018 06:00:00 8,2 6,1 2 1 8 4 N 1012,7 5 0 0,0
20.02.2018 05:00:00 8,3 6,1 3 2 6 3 NNW 1012,9 5 0 0,0
20.02.2018 04:00:00 8,4 6,2 2 1 6 4 N 1013,3 4,3 0 0,0
20.02.2018 03:00:00 8,4 6,4 2 1 7 4 N 1013,7 7 0 0,0
20.02.2018 02:00:00 8,5 6,7 5 3 6 4 NNO 1014,2 7 0 0,0
20.02.2018 01:00:00 8,7 6,7 1 1 4 2 NW 1014,7 8 0 -
20.02.2018 00:00:00 9,1 6,8 4 2 8 4 ZZW 1014,9 9 0 0,0
19.02.2018 23:00:00 9,0 6,5 5 3 13 7 Z 1015,1 10 0 0,0
19.02.2018 22:00:00 9,1 6,7 6 3 16 9 Z 1015,3 12 0 0,0
19.02.2018 21:00:00 9,4 6,7 10 5 17 9 Z 1015,2 16 0 0,0
19.02.2018 20:00:00 9,8 6,7 10 5 22 12 Z 1015,3 20 0 0,0
19.02.2018 19:00:00 10,4 6,7 13 7 22 12 Z 1015,3 20 0 -
19.02.2018 18:00:00 11,4 7,0 9 5 18 10 Z 1014,8 20 0 0,0
19.02.2018 17:00:00 12,4 5,9 8 5 18 10 Z 1014,7 20 0 0,0
19.02.2018 16:00:00 13,1 4,5 8 4 13 7 Z 1014,8 20 19 0,0
19.02.2018 15:00:00 13,7 4,5 5 3 12 6 W 1015,2 20 60 0,0
19.02.2018 14:00:00 12,1 4,8 5 3 11 6 WNW 1016,4 20 60 0,0
19.02.2018 13:00:00 10,7 4,1 5 3 10 5 W 1017,6 20 57 -
19.02.2018 12:00:00 - - - - - - - - - - -
19.02.2018 11:00:00 6,6 2,5 4 2 7 4 NO 1018,8 15 10 0,0
19.02.2018 10:00:00 4,7 1,9 3 1 7 4 NNO 1019,4 16 0 0,0
19.02.2018 09:00:00 4,0 1,7 4 2 9 5 NO 1019,4 17 0 0,0
19.02.2018 08:00:00 3,7 1,5 6 3 9 5 NO 1019,2 17 0 0,0
19.02.2018 07:00:00 3,5 1,5 6 3 11 6 NO 1018,7 17 0 -
19.02.2018 06:00:00 3,7 1,7 6 3 10 6 NO 1018,5 19 0 0,0

tt = temperatuur
td = dauwpunt
ff = windsnelheid
fx = windstoten
dd = windrichting
ppp = luchtdruk
vv = zicht
sd = Zonneschijnduur
rr = neerslag

Weerstations in de omgeving